• Join FlightAware (Why Join?)
  • Login
  • US Flag 
07:43PM EST


 

Airport Tracker/Info


-or-


 

Live Flight TrackerFlight Track Log ✈ GTI192 ✈ 22-Apr-2013 ✈ KMSP - KTOL

Flight Track Log - Related Links

Times and Time Zones

All times are in EDT time to prevent confusion due to time zone crossing. See the GTI192 flight status page for this flight to view local times or setup timezone preferences in your user account.

Time Position Orientation Groundspeed Altitude Reporting Facility
EDT Latitude Longitude Course Direction KTS MPH feet Rate Location/Type
11:14PM 44.9000 -93.2500 272° West 184 212 3,200  Level Minneapolis TRACON
11:15PM 44.9006 -93.2722 272° West 171 197 4,200 2,429 Climbing FAA TRACON SMA TRACON (SMA)
11:15PM 44.9142 -93.2811 335° Northwest 176 203 4,900 1,953 Climbing FAA TRACON SMA TRACON (SMA)
11:15PM 44.9300 -93.2883 342° North 190 219 5,600 1,953 Climbing FAA TRACON SMA TRACON (SMA)
11:16PM 44.9533 -93.2997 341° North 225 259 6,300 1,946 Climbing FAA TRACON SMA TRACON (SMA)
11:16PM 44.9753 -93.3092 343° North 257 296 6,800 1,135 Climbing FAA TRACON SMA TRACON (SMA)
11:16PM 44.9978 -93.3131 353° North 269 310 7,000 1,350 Climbing FAA TRACON SMA TRACON (SMA)
11:17PM 45.0189 -93.2978 27° Northeast 285 328 7,700 3,450 Climbing FAA TRACON SMA TRACON (SMA)
11:17PM 45.0342 -93.2600 60° Northeast 296 341 9,300 3,900 Climbing FAA TRACON SMA TRACON (SMA)
11:17PM 45.0325 -93.2247 94° East 301 346 10,300 2,400 Climbing FAA TRACON SMA TRACON (SMA)
11:18PM 45.0197 -93.1925 119° Southeast 308 354 10,900 1,800 Climbing FAA TRACON SMA TRACON (SMA)
11:18PM 44.9992 -93.1486 124° Southeast 339 390 11,500 2,100 Climbing FAA TRACON SMA TRACON (SMA)
11:18PM 44.9839 -93.1083 118° Southeast 372 428 12,300 2,700 Climbing FAA TRACON SMA TRACON (SMA)
11:19PM 44.9689 -93.0661 117° Southeast 389 448 13,300 3,600 Climbing FAA TRACON SMA TRACON (SMA)
11:19PM 44.9503 -93.0125 116° Southeast 397 457 14,700 3,750 Climbing FAA TRACON SMA TRACON (SMA)
11:19PM 44.9353 -92.9692 116° Southeast 399 459 15,800 3,300 Climbing FAA TRACON SMA TRACON (SMA)
11:20PM 44.9208 -92.9261 115° Southeast 397 457 16,900 3,150 Climbing FAA TRACON SMA TRACON (SMA)
11:20PM 44.9053 -92.8831 117° Southeast 400 460 17,900 3,070 Climbing FAA TRACON SMA TRACON (SMA)
11:20PM 44.8858 -92.8286 117° Southeast 402 463 19,100 3,136 Climbing FAA TRACON SMA TRACON (SMA)
11:21PM 44.8669 -92.7736 116° Southeast 406 467 20,200 2,757 Climbing FAA TRACON SMA TRACON (SMA)
11:21PM 44.8550 -92.7403 117° Southeast 411 473 20,800 2,833 Climbing FAA TRACON SMA TRACON (SMA)
11:21PM 44.8350 -92.6842 117° Southeast 416 479 21,900 2,850 Climbing FAA TRACON SMA TRACON (SMA)
11:22PM 44.8197 -92.6381 115° Southeast 421 484 22,700 2,250 Climbing FAA TRACON SMA TRACON (SMA)
11:22PM 44.8036 -92.5919 116° Southeast 426 490 23,400 2,400 Climbing FAA TRACON SMA TRACON (SMA)
11:22PM 44.7828 -92.5333 117° Southeast 433 498 24,300 2,400 Climbing FAA TRACON SMA TRACON (SMA)
11:23PM 44.7661 -92.4861 116° Southeast 438 504 25,000 2,100 Climbing FAA TRACON SMA TRACON (SMA)
11:23PM 44.7489 -92.4383 117° Southeast 443 510 25,700 2,308 Climbing FAA TRACON SMA TRACON (SMA)
11:23PM 44.7281 -92.3775 116° Southeast 449 517 26,500 2,100 Climbing FAA TRACON SMA TRACON (SMA)
11:24PM 44.7114 -92.3286 116° Southeast 451 519 27,100 1,756 Climbing FAA TRACON SMA TRACON (SMA)
11:24PM 44.6936 -92.2789 117° Southeast 457 526 27,700 1,950 Climbing FAA TRACON SMA TRACON (SMA)
11:24PM 44.6722 -92.2161 116° Southeast 462 532 28,400 1,800 Climbing FAA TRACON SMA TRACON (SMA)
11:25PM 44.6539 -92.1664 117° Southeast 467 537 28,900 1,500 Climbing FAA TRACON SMA TRACON (SMA)
11:25PM 44.6369 -92.1147 115° Southeast 470 541 29,400 1,800 Climbing FAA TRACON SMA TRACON (SMA)
11:25PM 44.6142 -92.0511 117° Southeast 476 548 30,100 2,250 Climbing FAA TRACON SMA TRACON (SMA)
11:26PM 44.5958 -92.0000 117° Southeast 477 549 30,900 2,400 Climbing FAA TRACON SMA TRACON (SMA)
11:26PM 44.5775 -91.9494 117° Southeast 475 547 31,700 1,950 Climbing FAA TRACON SMA TRACON (SMA)
11:26PM 44.5636 -91.9117 117° Southeast 475 547 32,200 897 Climbing FAA TRACON SMA TRACON (SMA)
11:27PM 44.4886 -91.7414 122° Southeast 470 541 33,000 375 Climbing Minneapolis Center
11:28PM 44.4283 -91.5839 118° Southeast 463 533 33,000  Level Minneapolis Center
11:29PM 44.3686 -91.4214 117° Southeast 467 537 33,000  Level Minneapolis Center
11:30PM 44.3031 -91.2506 118° Southeast 472 543 33,000  Level Minneapolis Center
11:31PM 44.2414 -91.0883 118° Southeast 475 547 33,000  Level Minneapolis Center
11:32PM 44.1806 -90.9256 117° Southeast 475 547 33,000  Level Minneapolis Center
11:33PM 44.1172 -90.7650 119° Southeast 476 548 33,000  Level Minneapolis Center
11:34PM 44.0425 -90.5708 118° Southeast 477 549 33,000  Level Minneapolis Center
11:35PM 43.9856 -90.4228 118° Southeast 479 551 33,000  Level Minneapolis Center
11:36PM 43.9219 -90.2611 119° Southeast 478 550 33,000  Level Minneapolis Center
11:37PM 43.8489 -90.0736 118° Southeast 476 548 33,000  Level Minneapolis Center
11:38PM 43.7839 -89.9133 119° Southeast 476 548 33,000  Level Minneapolis Center
11:40PM 43.7206 -89.7522 118° Southeast 476 548 33,000  Level Minneapolis Center
11:41PM 43.6564 -89.5922 119° Southeast 478 550 33,000  Level Minneapolis Center
11:41PM 43.6122 -89.4861 120° Southeast 479 551 33,000  Level Chicago Center
11:42PM 43.5469 -89.3247 119° Southeast 481 554 33,000  Level Chicago Center
11:43PM 43.4822 -89.1633 119° Southeast 482 555 33,000  Level Chicago Center
11:44PM 43.4161 -89.0031 120° Southeast 484 557 33,000  Level Chicago Center
11:45PM 43.3506 -88.8436 119° Southeast 483 556 33,000  Level Chicago Center
11:46PM 43.2850 -88.6853 120° Southeast 483 556 33,000  Level Chicago Center
11:47PM 43.2081 -88.5011 120° Southeast 485 558 33,000  Level Chicago Center
11:48PM 43.1414 -88.3428 120° Southeast 484 557 33,000  Level Chicago Center
11:49PM 43.0858 -88.1739 114° Southeast 487 560 33,000  Level Chicago Center
11:50PM 43.0336 -88.0006 112° Southeast 492 566 33,000  Level Chicago Center
11:51PM 42.9839 -87.8267 111° Southeast 493 567 33,000  Level Chicago Center
11:52PM 42.9339 -87.6539 112° Southeast 492 566 33,000  Level Chicago Center
11:53PM 42.8831 -87.4806 112° Southeast 493 567 33,000  Level Chicago Center
11:54PM 42.8294 -87.2989 112° Southeast 492 566 33,000  Level Chicago Center
11:55PM 42.7783 -87.1272 112° Southeast 492 566 33,000  Level Chicago Center
11:56PM 42.7264 -86.9558 112° Southeast 492 566 33,000 -49 Level Chicago Center
11:57PM 42.6750 -86.7847 112° Southeast 493 567 32,900 -878 Descending Chicago Center
11:58PM 42.6236 -86.6153 112° Southeast 489 563 31,200 -2,146 Descending Chicago Center
11:59PM 42.5711 -86.4492 113° Southeast 484 557 28,500 -2,826 Descending Chicago Center
12:00AM 42.5211 -86.2842 112° Southeast 479 551 25,500 -3,421 Descending Chicago Center
12:02AM 42.4592 -86.0897 113° Southeast 475 547 21,600 -2,213 Descending Chicago Center
12:03AM 42.4017 -85.9289 116° Southeast 477 549 21,000 -295 Descending Chicago Center
12:04AM 42.3439 -85.7750 117° Southeast 466 536 21,000 -298 Level Chicago Center
12:05AM 42.2864 -85.6181 116° Southeast 468 539 20,400 -645 Descending Chicago Center
12:06AM 42.2289 -85.4639 117° Southeast 464 534 19,700 -1,328 Descending Chicago Center
12:07AM 42.1769 -85.3178 116° Southeast 439 505 17,700 -1,339 Descending Chicago Center
12:08AM 42.1261 -85.1814 117° Southeast 413 475 17,000 -347 Descending Chicago Center
12:09AM 42.0753 -85.0450 117° Southeast 409 471 17,000  Level Chicago Center
12:10AM 42.0225 -84.9092 118° Southeast 410 472 17,000 -446 Level Chicago Center
12:11AM 41.9753 -84.7831 117° Southeast 404 465 16,100 -1,488 Descending Chicago Center
12:12AM 41.9281 -84.6600 117° Southeast 375 432 14,000 -2,311 Descending Chicago Center
12:13AM 41.8728 -84.5175 117° Southeast 357 411 11,400 -1,934 Descending Chicago Center
12:14AM 41.8292 -84.4033 117° Southeast 346 398 10,100 -942 Descending Chicago Center
12:15AM 41.7919 -84.3058 117° Southeast 303 349 9,500 -843 Descending Chicago Center
12:16AM 41.7567 -84.2142 117° Southeast 282 325 8,400 -1,140 Descending Chicago Center
12:17AM 41.7136 -84.1383 127° Southeast 275 316 7,200 -1,131 Descending Chicago Center
12:18AM 41.6622 -84.0853 142° Southeast 252 290 6,100 -1,388 Descending Chicago Center
12:19AM 41.6189 -84.0386 141° Southeast 229 264 4,400 -1,700 Descending Chicago Center